Torna al catalogo

DELTA 1 DEB

AttivoSSO
NORAD 2154·DEBRIS·🇺🇸 United States

Lanciato Feb 3, 1966 da Cape Canaveral Space Force Station

Loading…

Prossimi Passaggi (prossime 24 ore)

TLE

AggiornatoSource: Space-Track

Epoca: Sep 14, 2026, 13:31 UTC

1 02154U 66008E   26257.56359697  .00000679  00000-0  11433-3 0  9991
2 02154  97.8819  10.9078 0046536  23.0637 337.2646 14.71964279192166

Traccia DELTA 1 DEB in tempo reale con AllMySat

Download on the App Store